Date String (YYYY-MM-DD hh:mm:ss) UTC,Instrument flags,absolute air pressure of the measurement (hPa),sample flow rate (lpm),inlet stack bypass flow (lpm),air temperature of the measurement (°C),ambient temperature measured by the external sensor (°C),aerosol sample conditioner tube jacket temperature (°C),OPC LED temperature (°C),internal box temperature (°C),relative humidity of the measurement (%),span deviation,mass concentration of particles derived from Lorenz-Mie calculation of OPC scattering (μg/m³),mass concentration of particles derived from Lorenz-Mie calculation of OPC scattering (μg/m³),mass concentration of particles derived from Lorenz-Mie calculation of OPC scattering (μg/m³)
DateTimeUTC,F1_M11,P_M11,Q1_M11,Q2_M11,T1_M11,T2_M11,T3_M11,T4_M11,T5_M11,U1_M11,ZSPAN_M11,X2_M11,X0_M11,X1_M11
2023-11-12 12:00:00,SystemResetWarning,0833.3,5.00,000.00,023.3,022.2,000.0,031.7,024.6,6.8,0000.0,0001.76,0003.47,0001.22
2023-11-12 12:01:00,SystemResetWarning,0833.4,5.00,000.00,023.3,022.2,000.0,031.7,024.7,6.9,0000.0,0001.79,0003.49,0001.22
2023-11-12 12:02:00,SystemResetWarning,0833.4,5.00,000.00,023.3,022.2,000.0,031.7,024.7,6.9,0000.0,0001.85,0003.61,0001.22
2023-11-12 12:03:00,SystemResetWarning,0833.4,5.00,000.00,023.3,022.2,000.0,031.6,024.7,6.9,0000.0,0001.85,0003.60,0001.21
2023-11-12 12:04:00,SystemResetWarning,0833.4,5.00,000.00,023.3,022.2,000.0,031.6,024.7,7.0,0000.0,0001.87,0003.60,0001.20
2023-11-12 12:05:00,SystemResetWarning,0833.4,5.00,000.00,023.3,022.1,000.0,031.6,024.7,7.0,0000.0,0001.87,0003.45,0001.20
2023-11-12 12:06:00,SystemResetWarning,0833.4,5.00,000.00,023.3,022.2,000.0,031.6,024.7,7.0,0000.0,0001.89,0003.39,0001.21
2023-11-12 12:07:00,SystemResetWarning,0833.4,5.00,000.00,023.3,022.2,000.0,031.6,024.7,6.9,0000.0,0001.89,0003.36,0001.22
2023-11-12 12:08:00,SystemResetWarning,0833.4,5.00,000.00,023.3,022.2,000.0,031.6,024.7,6.9,0000.0,0001.87,0003.30,0001.22
2023-11-12 12:09:00,SystemResetWarning,0833.4,5.00,000.00,023.3,022.2,000.0,031.6,024.7,6.9,0000.0,0001.84,0003.29,0001.22
2023-11-12 12:10:00,SystemResetWarning,0833.4,5.00,000.00,023.3,022.2,000.0,031.6,024.7,7.0,0000.0,0001.82,0003.33,0001.23
2023-11-12 12:11:00,SystemResetWarning,0833.6,5.00,000.00,023.3,022.2,000.0,031.6,024.7,6.8,0000.0,0001.80,0003.37,0001.23
2023-11-12 12:12:00,SystemResetWarning,0833.5,5.00,000.00,023.2,022.2,000.0,031.6,024.6,6.8,0000.0,0001.77,0003.29,0001.23
2023-11-12 12:13:00,SystemResetWarning,0833.6,5.00,000.00,023.2,022.1,000.0,031.6,024.6,6.9,0000.0,0001.71,0003.12,0001.24
2023-11-12 12:14:00,SystemResetWarning,0833.6,5.00,000.00,023.2,022.1,000.0,031.6,024.7,6.8,0000.0,0001.70,0003.11,0001.23
2023-11-12 12:15:00,SystemResetWarning,0833.6,5.00,000.00,023.2,022.1,000.0,031.6,024.7,6.8,0000.0,0001.75,0003.26,0001.24
2023-11-12 12:16:00,SystemResetWarning,0833.6,5.00,000.00,023.2,022.1,000.0,031.6,024.6,6.6,0000.0,0001.76,0003.28,0001.21
2023-11-12 12:17:00,SystemResetWarning,0833.6,5.00,000.00,023.2,022.2,000.0,031.6,024.6,6.4,0000.0,0001.74,0003.36,0001.20
2023-11-12 12:18:00,SystemResetWarning,0833.6,5.00,000.00,023.2,022.2,000.0,031.6,024.7,6.5,0000.0,0001.72,0003.35,0001.19
2023-11-12 12:19:00,SystemResetWarning,0833.7,5.00,000.00,023.3,022.2,000.0,031.6,024.7,6.6,0000.0,0001.70,0003.18,0001.17
2023-11-12 12:20:00,SystemResetWarning,0833.7,5.00,000.00,023.3,022.2,000.0,031.6,024.7,6.6,0000.0,0001.66,0003.07,0001.17
2023-11-12 12:21:00,SystemResetWarning,0833.7,5.00,000.00,023.3,022.3,000.0,031.6,024.7,6.6,0000.0,0001.65,0003.10,0001.16
2023-11-12 12:22:00,SystemResetWarning,0833.7,5.00,000.00,023.3,022.3,000.0,031.6,024.7,6.6,0000.0,0001.63,0002.99,0001.17
2023-11-12 12:23:00,SystemResetWarning,0833.7,5.01,000.00,023.3,022.3,000.0,031.6,024.7,6.5,0000.0,0001.61,0002.98,0001.15
2023-11-12 12:24:00,SystemResetWarning,0833.7,5.00,000.00,023.3,022.2,000.0,031.6,024.6,6.5,0000.0,0001.59,0002.95,0001.12
2023-11-12 12:25:00,SystemResetWarning,0833.8,5.00,000.00,023.2,022.2,000.0,031.6,024.6,6.4,0000.0,0001.56,0002.83,0001.12
2023-11-12 12:26:00,SystemResetWarning,0833.7,5.00,000.00,023.2,022.2,000.0,031.6,024.7,6.3,0000.0,0001.48,0002.59,0001.10
2023-11-12 12:27:00,SystemResetWarning,0833.7,5.00,000.00,023.2,022.2,000.0,031.6,024.7,6.3,0000.0,0001.41,0002.41,0001.11
2023-11-12 12:28:00,SystemResetWarning,0833.7,5.00,000.00,023.2,022.2,000.0,031.6,024.7,6.3,0000.0,0001.39,0002.30,0001.11
2023-11-12 12:29:00,SystemResetWarning,0833.7,5.00,000.00,023.2,022.2,000.0,031.6,024.7,6.4,0000.0,0001.40,0002.23,0001.11
2023-11-12 12:30:00,SystemResetWarning,0833.7,5.00,000.00,023.2,022.2,000.0,031.6,024.7,6.4,0000.0,0001.42,0002.28,0001.13
2023-11-12 12:31:00,SystemResetWarning,0833.8,5.00,000.00,023.2,022.2,000.0,031.6,024.7,6.4,0000.0,0001.47,0002.41,0001.13
2023-11-12 12:32:00,SystemResetWarning,0833.7,5.00,000.00,023.2,022.2,000.0,031.6,024.7,6.4,0000.0,0001.48,0002.37,0001.13
2023-11-12 12:33:00,SystemResetWarning,0833.8,5.01,000.00,023.2,022.2,000.0,031.6,024.7,6.4,0000.0,0001.48,0002.27,0001.12
2023-11-12 12:34:00,SystemResetWarning,0833.8,5.00,000.00,023.3,022.2,000.0,031.6,024.6,6.5,0000.0,0001.53,0002.39,0001.13
2023-11-12 12:35:00,SystemResetWarning,0833.8,5.00,000.00,023.2,022.2,000.0,031.6,024.6,6.5,0000.0,0001.54,0002.80,0001.15
2023-11-12 12:36:00,SystemResetWarning,0833.7,4.99,000.00,023.2,022.2,000.0,031.6,024.5,6.5,0000.0,0001.57,0003.29,0001.16
2023-11-12 12:37:00,SystemResetWarning,0833.8,4.99,000.00,023.2,022.1,000.0,031.6,024.6,6.5,0000.0,0001.61,0003.37,0001.18
2023-11-12 12:38:00,SystemResetWarning,0833.8,5.00,000.00,023.2,022.1,000.0,031.6,024.5,6.5,0000.0,0001.66,0003.46,0001.19
2023-11-12 12:39:00,SystemResetWarning,0833.8,5.01,000.00,023.2,022.1,000.0,031.6,024.5,6.5,0000.0,0001.71,0003.64,0001.22
2023-11-12 12:40:00,SystemResetWarning,0833.8,5.01,000.00,023.2,022.1,000.0,031.6,024.5,6.6,0000.0,0001.76,0003.75,0001.23
2023-11-12 12:41:00,SystemResetWarning,0833.8,5.00,000.00,023.2,022.1,000.0,031.6,024.5,6.6,0000.0,0001.78,0003.80,0001.22
2023-11-12 12:42:00,SystemResetWarning,0833.8,5.00,000.00,023.2,022.1,000.0,031.6,024.5,6.6,0000.0,0001.77,0003.78,0001.24
2023-11-12 12:43:00,SystemResetWarning,0833.8,5.00,000.00,023.2,022.1,000.0,031.6,024.5,6.7,0000.0,0001.78,0003.79,0001.25
2023-11-12 12:44:00,SystemResetWarning,0833.8,4.99,000.00,023.1,022.0,000.0,031.6,024.5,6.5,0000.0,0001.84,0003.88,0001.26
2023-11-12 12:45:00,SystemResetWarning,0833.8,4.99,000.00,023.1,022.0,000.0,031.6,024.5,6.5,0000.0,0001.81,0003.76,0001.26
2023-11-12 12:46:00,SystemResetWarning,0833.8,5.01,000.00,023.1,022.0,000.0,031.5,024.5,6.6,0000.0,0001.84,0003.47,0001.28
2023-11-12 12:47:00,SystemResetWarning,0833.8,5.01,000.00,023.1,022.0,000.0,031.5,024.5,6.6,0000.0,0001.84,0003.02,0001.30
2023-11-12 12:48:00,SystemResetWarning,0833.8,4.99,000.00,023.1,022.0,000.0,031.5,024.4,6.7,0000.0,0001.84,0003.05,0001.31
2023-11-12 12:49:00,SystemResetWarning,0833.8,4.99,000.00,023.1,022.0,000.0,031.5,024.4,6.7,0000.0,0001.80,0003.02,0001.30
2023-11-12 12:50:00,SystemResetWarning,0833.9,5.01,000.00,023.1,022.0,000.0,031.5,024.4,6.8,0000.0,0001.79,0002.92,0001.30
2023-11-12 12:51:00,SystemResetWarning,0833.8,5.01,000.00,023.1,022.0,000.0,031.5,024.4,6.8,0000.0,0001.75,0002.84,0001.29
2023-11-12 12:52:00,SystemResetWarning,0833.8,4.99,000.00,023.1,022.0,000.0,031.5,024.4,6.8,0000.0,0001.73,0002.78,0001.29
2023-11-12 12:53:00,SystemResetWarning,0833.9,4.99,000.00,023.1,022.0,000.0,031.5,024.4,6.8,0000.0,0001.73,0002.75,0001.29
2023-11-12 12:54:00,SystemResetWarning,0833.8,5.00,000.00,023.1,022.0,000.0,031.5,024.4,6.8,0000.0,0001.73,0002.75,0001.29
2023-11-12 12:55:00,SystemResetWarning,0833.9,5.01,000.00,023.1,021.9,000.0,031.5,024.4,6.9,0000.0,0001.71,0002.78,0001.28
2023-11-12 12:56:00,SystemResetWarning,0833.9,5.00,000.00,023.1,021.9,000.0,031.5,024.5,6.9,0000.0,0001.72,0002.86,0001.29
2023-11-12 12:57:00,SystemResetWarning,0833.9,5.00,000.00,023.1,021.9,000.0,031.5,024.4,6.9,0000.0,0001.73,0002.93,0001.28
2023-11-12 12:58:00,SystemResetWarning,0834.0,4.99,000.00,023.1,022.0,000.0,031.5,024.4,6.8,0000.0,0001.72,0002.93,0001.27
2023-11-12 12:59:00,SystemResetWarning,0833.9,4.99,000.00,023.1,021.9,000.0,031.5,024.4,6.8,0000.0,0001.75,0002.98,0001.26
